[[{"header":{"parameterUnit":"m.s-1","parameterCategory":2,"la1":30.2991,"la2":30.254,"lo1":-89.0895,"lo2":-89.0444,"dy":0.0017,"dx":0.0017,"nx":28,"ny":28,"refTime":"2024-03-18T21:00:00:Z","depth":"0","parameterNumber":2,"parameterNumberName":"U-component_of_CURRENTS"},"data":[0,0,0,0,0,0,0,0,0,0,0,0,0,0,0,0,0,0,0,0,0,0,0,0,0,0,0,0,0,0,0,0,0,0,0,0,0,0,0,0,0,0,0,0,0,0,0,0,0,0,0,0,0,0,0,0,0,0,-0.2092,-0.2092,0,-0.2122,-0.2122,-0.2122,-0.2096,-0.2095,-0.2094,-0.2093,-0.2083,-0.2084,-0.2084,0,0,0,0,0,0,0,0,0,0,0,0,0,-0.2022,-0.2023,-0.2092,-0.2092,-0.2093,-0.2122,-0.2122,-0.2122,-0.2096,-0.2095,-0.2093,-0.2092,-0.2083,-0.2084,-0.2084,0,0,0,0,0,0,0,0,0,0,0,0,0,-0.205,-0.2024,-0.2092,-0.2085,-0.2084,-0.2122,-0.2122,-0.2122,-0.2096,-0.2095,-0.2093,-0.2092,-0.2083,-0.2084,-0.2085,-0.2117,0,0,-0.2087,-0.2088,0,0,0,0,0,0,0,0,-0.2049,-0.2052,-0.2085,-0.2085,-0.2085,-0.2106,-0.2094,-0.2119,-0.2096,-0.2089,-0.2093,-0.2091,-0.209,-0.209,-0.2096,-0.2117,-0.2116,-0.2087,-0.2088,-0.2088,-0.2088,0,0,0,0,0,0,0,-0.2047,-0.2051,-0.2101,-0.2086,-0.2086,-0.2084,-0.2086,-0.2099,-0.2094,-0.209,-0.2088,-0.2096,-0.2089,-0.2095,-0.2095,-0.2116,-0.2087,-0.2088,-0.2089,-0.2089,-0.2149,-0.215,0,0,0,0,0,0,-0.2049,-0.205,-0.2101,-0.2103,-0.2066,-0.2087,-0.2089,-0.2099,-0.2095,-0.2094,-0.2097,-0.2094,-0.2094,-0.2094,-0.2095,-0.2121,-0.2088,-0.2089,-0.209,-0.2148,-0.2149,-0.215,0,0,0,0,0,0,-0.2047,-0.2053,-0.2099,-0.2078,-0.2084,-0.2089,-0.21,-0.21,-0.2101,-0.2101,-0.2099,-0.2097,-0.2093,-0.2094,-0.2106,-0.212,-0.2089,-0.209,-0.2147,-0.2148,-0.215,-0.218,0,0,0,0,0,0,-0.2045,-0.2052,-0.2056,-0.2078,-0.2085,-0.2119,-0.2102,-0.2102,-0.2109,-0.2105,-0.2101,-0.2099,-0.2092,-0.2105,-0.2107,-0.2121,-0.2091,-0.2145,-0.2147,-0.2149,-0.2178,-0.2183,-0.2187,0,0,0,0,0,-0.2042,-0.2053,-0.2056,-0.2062,-0.2092,-0.212,-0.2123,-0.2121,-0.211,-0.2115,-0.2113,-0.2099,-0.2119,-0.2107,-0.2109,-0.2123,-0.2144,-0.2147,-0.2149,-0.2176,-0.2182,-0.2187,0,0,0,0,0,0,-0.2022,-0.2052,-0.2056,-0.2074,-0.2096,-0.2116,-0.2121,-0.2124,-0.2129,-0.2121,-0.2115,-0.2114,-0.213,-0.2128,-0.2114,-0.2148,-0.2129,-0.2132,-0.2148,-0.2154,-0.2158,-0.2155,-0.2092,0,0,0,0,0,-0.2023,-0.2036,-0.2067,-0.208,-0.2092,-0.2108,-0.2117,-0.212,-0.2131,-0.213,-0.213,-0.2133,-0.2146,-0.2148,-0.2157,-0.2178,-0.2171,-0.2188,-0.2193,-0.2197,-0.2197,-0.2205,-0.221,-0.2158,-0.2158,-0.2158,0,0,-0.2017,-0.2036,-0.2043,-0.2077,-0.209,-0.2116,-0.2109,-0.2126,-0.2145,-0.2131,-0.2147,-0.2149,-0.2156,-0.2177,-0.2184,-0.2173,-0.2209,-0.22,-0.2203,-0.2201,-0.2208,-0.2213,-0.2217,-0.216,-0.216,-0.2159,0,0,-0.2018,-0.2033,-0.2047,-0.2071,-0.2099,-0.2116,-0.2123,-0.2148,-0.2152,-0.2177,-0.2171,-0.2185,-0.22,-0.2211,-0.2218,-0.2256,-0.2233,-0.2254,-0.2272,-0.2281,-0.2285,-0.2288,-0.2285,-0.2288,-0.2255,-0.2255,-0.2255,0,-0.201,-0.2034,-0.2055,-0.2081,-0.2098,-0.2118,-0.214,-0.2161,-0.2185,-0.2193,-0.2182,-0.2215,-0.222,-0.2252,-0.2262,-0.2266,-0.2257,-0.225,-0.2286,-0.2289,-0.2292,-0.2288,-0.2291,-0.2256,-0.2256,-0.2256,-0.2256,0,-0.2026,-0.2048,-0.2059,-0.2099,-0.2123,-0.2144,-0.218,-0.2199,-0.2207,-0.2224,-0.225,-0.2262,-0.2276,-0.2286,-0.2285,-0.2313,-0.2296,-0.229,-0.2269,-0.2298,-0.2293,-0.2295,-0.2259,-0.2258,-0.2258,-0.2257,0,0,-0.1994,-0.2058,-0.2059,-0.208,-0.2132,-0.2152,-0.2192,-0.223,-0.2253,-0.2272,-0.2296,-0.2325,-0.2321,-0.2329,-0.2332,-0.2343,-0.236,-0.2322,-0.2322,-0.2313,-0.2365,-0.2278,-0.2272,-0.2353,-0.2354,-0.2354,-0.2352,0,-0.1995,-0.2038,-0.2074,-0.2113,-0.2137,-0.2177,-0.2214,-0.2251,-0.2279,-0.2309,-0.2327,-0.2348,-0.2342,-0.2345,-0.2358,-0.2363,-0.2367,-0.236,-0.2342,-0.2341,-0.2256,-0.2273,-0.2145,-0.2125,-0.2354,-0.2354,-0.2354,0,-0.1994,-0.2022,-0.2057,-0.2119,-0.2133,-0.2158,-0.2211,-0.225,-0.2306,-0.2324,-0.235,-0.2365,-0.2394,-0.2377,-0.2397,-0.2388,-0.2375,-0.2375,-0.2375,-0.2283,-0.2259,-0.2133,-0.212,-0.2083,-0.2358,-0.2357,-0.2357,0,-0.1944,-0.201,-0.2032,-0.2053,-0.2127,-0.2142,-0.2177,-0.2239,-0.2273,-0.2324,-0.2345,-0.2384,-0.2393,-0.2399,-0.2398,-0.2395,-0.2407,-0.2405,-0.2317,-0.2311,-0.2192,-0.2174,-0.2133,-0.2408,-0.2408,-0.2408,-0.2408,0,-0.1925,-0.1941,-0.2007,-0.2016,-0.2044,-0.2104,-0.2139,-0.2184,-0.2248,-0.2276,-0.2335,-0.2356,-0.2396,-0.241,-0.2406,-0.2362,-0.2411,-0.2317,-0.2303,-0.2199,-0.2182,-0.2136,-0.2158,-0.2408,-0.2408,-0.2408,-0.2408,0,-0.186,-0.1908,-0.1936,-0.2,-0.2019,-0.2031,-0.2105,-0.2129,-0.2201,-0.2238,-0.225,-0.2334,-0.2346,-0.2377,-0.2389,-0.2354,-0.228,-0.2304,-0.2172,-0.2141,-0.2005,-0.2034,-0.1998,-0.1934,-0.2204,-0.2202,-0.22,0,-0.183,-0.1836,-0.1899,-0.1905,-0.1925,-0.1961,-0.1981,-0.2076,-0.2103,-0.2209,-0.221,-0.2264,-0.2268,-0.2269,-0.2231,-0.2202,-0.2197,-0.2052,-0.2022,-0.1973,-0.1997,-0.2027,-0.1978,-0.1885,-0.1881,-0.1878,-0.1875,0,-0.1756,-0.1778,-0.1795,-0.1811,-0.1825,-0.186,-0.1895,-0.1919,-0.2018,-0.2062,-0.2107,-0.213,-0.214,-0.2063,-0.2029,-0.199,-0.1973,-0.1976,-0.1963,-0.177,-0.1763,-0.1701,-0.1918,-0.1844,-0.1847,-0.1849,-0.1851,-0.1852,-0.1684,-0.1676,-0.1694,-0.1699,-0.1721,-0.1728,-0.171,-0.1768,-0.1804,-0.1844,-0.1937,-0.1952,-0.1915,-0.1854,-0.1798,-0.1659,-0.176,-0.1594,-0.1643,-0.1685,-0.1588,-0.1727,-0.1613,-0.1614,-0.1616,-0.1617,-0.1618,0,-0.1583,-0.158,-0.1579,-0.158,-0.1552,-0.1606,-0.1624,-0.1592,-0.1582,-0.1679,-0.1702,-0.1728,-0.1608,-0.1586,-0.1463,-0.136,-0.1322,-0.1319,-0.1336,-0.1308,-0.1445,-0.1391,-0.1176,-0.1176,-0.1176,-0.1176,-0.1176,-0.1176,-0.1527,-0.1484,-0.1486,-0.1405,-0.1398,-0.1325,-0.1307,-0.1293,-0.1337,-0.1374,-0.1455,-0.1547,-0.1557,-0.1515,-0.1323,-0.1215,-0.1181,-0.1128,-0.1181,-0.1283,-0.1313,-0.1341,-0.1294,-0.1062,-0.1062,-0.0959,-0.0958,-0.0958]},{"header":{"parameterUnit":"m.s-1","parameterCategory":2,"la1":30.2991,"la2":30.254,"lo1":-89.0895,"lo2":-89.0444,"dy":0.0017,"dx":0.0017,"nx":28,"ny":28,"refTime":"2024-03-18T21:00:00:Z","depth":"0","parameterNumber":3,"parameterNumberName":"V-component_of_CURRENTS"},"data":[0,0,0,0,0,0,0,0,0,0,0,0,0,0,0,0,0,0,0,0,0,0,0,0,0,0,0,0,0,0,0,0,0,0,0,0,0,0,0,0,0,0,0,0,0,0,0,0,0,0,0,0,0,0,0,0,0,0,-0.0303,-0.0302,0,-0.0232,-0.0231,-0.023,-0.0181,-0.018,-0.018,-0.018,-0.0087,-0.0085,-0.0083,0,0,0,0,0,0,0,0,0,0,0,0,0,-0.0359,-0.0358,-0.0303,-0.0302,-0.0301,-0.0232,-0.0231,-0.023,-0.0181,-0.018,-0.018,-0.018,-0.0088,-0.0085,-0.0083,0,0,0,0,0,0,0,0,0,0,0,0,0,-0.0316,-0.0358,-0.0303,-0.0268,-0.0265,-0.0232,-0.0231,-0.023,-0.0181,-0.018,-0.018,-0.0179,-0.0089,-0.0085,-0.0082,-0.0073,0,0,-0.0073,-0.0071,0,0,0,0,0,0,0,0,-0.0318,-0.0314,-0.0274,-0.0271,-0.0266,-0.0215,-0.0217,-0.0176,-0.0181,-0.0212,-0.018,-0.0179,-0.0128,-0.0122,-0.011,-0.0069,-0.0065,-0.0072,-0.007,-0.0069,-0.0068,0,0,0,0,0,0,0,-0.0322,-0.0316,-0.0274,-0.0273,-0.0269,-0.0244,-0.0238,-0.0209,-0.0174,-0.021,-0.0206,-0.0199,-0.0126,-0.0113,-0.0107,-0.0063,-0.0072,-0.0069,-0.0067,-0.0066,-0.0003,-0.0004,0,0,0,0,0,0,-0.0333,-0.032,-0.0277,-0.0272,-0.0292,-0.0244,-0.0236,-0.0232,-0.0174,-0.0165,-0.0199,-0.0197,-0.0119,-0.0111,-0.0104,-0.0092,-0.0069,-0.0066,-0.0064,-0.0003,-0.0003,-0.0004,0,0,0,0,0,0,-0.0335,-0.033,-0.0279,-0.0294,-0.0286,-0.0244,-0.0238,-0.0231,-0.0216,-0.0167,-0.0157,-0.0193,-0.0118,-0.0108,-0.008,-0.0087,-0.0064,-0.0062,-0.0003,-0.0003,-0.0004,-0.0066,0,0,0,0,0,0,-0.0337,-0.0331,-0.0334,-0.0295,-0.0286,-0.0266,-0.0239,-0.023,-0.0213,-0.0209,-0.0158,-0.0149,-0.0117,-0.0085,-0.0077,-0.0083,-0.0059,-0.0003,-0.0003,-0.0003,-0.0064,-0.0068,-0.0073,0,0,0,0,0,-0.0339,-0.0346,-0.0335,-0.033,-0.029,-0.0267,-0.026,-0.0227,-0.0213,-0.0211,-0.0176,-0.015,-0.0082,-0.0083,-0.0073,-0.0078,-0.0002,-0.0003,-0.0003,-0.0062,-0.0068,-0.0073,0,0,0,0,0,0,-0.0371,-0.0341,-0.0327,-0.0325,-0.03,-0.0258,-0.0254,-0.0232,-0.0203,-0.0199,-0.0152,-0.0141,-0.012,-0.0091,-0.0092,-0.0061,-0.0039,-0.0037,-0.0086,-0.0091,-0.0096,-0.0107,-0.0056,0,0,0,0,0,-0.038,-0.0379,-0.0344,-0.0342,-0.0333,-0.0295,-0.0282,-0.0261,-0.0229,-0.0216,-0.018,-0.0144,-0.0115,-0.0097,-0.0067,-0.005,-0.0018,-0.0046,-0.0051,-0.0055,-0.0057,-0.002,-0.0022,-0.0006,-0.0006,-0.0006,0,0,-0.0391,-0.0376,-0.0374,-0.0349,-0.0328,-0.0323,-0.0286,-0.0272,-0.0266,-0.0211,-0.0194,-0.0159,-0.0114,-0.0095,-0.0083,-0.0071,-0.0042,-0.0056,-0.006,-0.006,-0.0021,-0.0023,-0.0024,-0.0006,-0.0006,-0.0006,0,0,-0.0418,-0.0401,-0.0409,-0.0395,-0.037,-0.0346,-0.0345,-0.0307,-0.0289,-0.0268,-0.0229,-0.02,-0.0155,-0.0124,-0.0103,-0.0114,-0.0069,-0.0104,-0.0134,-0.0098,-0.0099,-0.01,-0.0061,-0.0057,-0.0105,-0.0105,-0.0105,0,-0.0433,-0.0439,-0.0408,-0.0414,-0.0408,-0.0361,-0.037,-0.0345,-0.0303,-0.0291,-0.0272,-0.0206,-0.0169,-0.0142,-0.0145,-0.0125,-0.0095,-0.0119,-0.0105,-0.0105,-0.0104,-0.0064,-0.0059,-0.0108,-0.0108,-0.0108,-0.0107,0,-0.0466,-0.047,-0.0475,-0.0467,-0.0457,-0.0456,-0.0421,-0.0406,-0.0378,-0.0348,-0.0316,-0.0263,-0.0223,-0.0207,-0.0178,-0.0157,-0.0134,-0.0117,-0.0094,-0.011,-0.0066,-0.006,-0.0113,-0.0112,-0.0111,-0.011,0,0,-0.0501,-0.0499,-0.0501,-0.051,-0.0487,-0.0482,-0.0474,-0.0451,-0.0446,-0.0399,-0.0386,-0.0331,-0.0296,-0.0269,-0.0226,-0.0192,-0.0161,-0.0157,-0.0154,-0.0123,-0.0078,-0.0045,-0.0035,-0.0142,-0.0142,-0.0141,-0.0049,0,-0.0536,-0.0567,-0.0551,-0.0575,-0.0588,-0.0549,-0.055,-0.0522,-0.0485,-0.0459,-0.0397,-0.0366,-0.0321,-0.0301,-0.0261,-0.0185,-0.0149,-0.0188,-0.0062,-0.0059,-0.0032,-0.0029,-0.0013,0.0072,-0.0043,-0.0042,-0.0041,0,-0.0574,-0.0591,-0.0626,-0.0637,-0.0639,-0.0644,-0.0632,-0.0621,-0.057,-0.0543,-0.0492,-0.0436,-0.0375,-0.0338,-0.0217,-0.0243,-0.0169,-0.0109,-0.0103,-0.0047,-0.0015,0.007,0.0087,0.023,-0.0032,-0.0032,-0.0033,0,-0.0621,-0.0642,-0.0675,-0.0678,-0.0681,-0.0689,-0.0683,-0.0649,-0.0643,-0.0586,-0.0571,-0.0487,-0.0443,-0.0343,-0.0213,-0.0214,-0.0079,-0.0063,0.0038,0.0041,0.0093,0.0099,0.0258,0.0017,0.0017,0.0016,0.0016,0,-0.0666,-0.0691,-0.0701,-0.072,-0.0761,-0.0739,-0.0761,-0.0741,-0.0711,-0.0706,-0.0616,-0.0589,-0.0443,-0.0344,-0.0228,-0.0073,-0.0087,0.0037,0.0068,0.0072,0.0075,0.0233,0.0308,0.002,0.0019,0.0018,0.0018,0,-0.0711,-0.0716,-0.0756,-0.0776,-0.0785,-0.0812,-0.0822,-0.0832,-0.0793,-0.078,-0.0764,-0.066,-0.0526,-0.0371,-0.0199,-0.0093,0.0149,0.0105,0.0103,0.0132,0.0355,0.0424,0.0622,0.0723,0.0233,0.0235,0.0236,0,-0.0736,-0.0762,-0.0805,-0.0833,-0.0844,-0.0876,-0.09,-0.088,-0.0883,-0.0822,-0.0821,-0.0693,-0.0597,-0.0328,-0.0119,0.0097,0.022,0.0239,0.024,0.0377,0.0478,0.0524,0.0597,0.0288,0.0289,0.029,0.0291,0,-0.0784,-0.0797,-0.0831,-0.0895,-0.0931,-0.0971,-0.0995,-0.1011,-0.0976,-0.0952,-0.0891,-0.0807,-0.0544,-0.0304,-0.002,0.0124,0.0364,0.0271,0.0418,0.0541,0.0597,0.0705,0.022,0.0302,0.0301,0.03,0.03,0.0299,-0.0813,-0.0853,-0.0897,-0.0953,-0.0999,-0.1046,-0.1072,-0.1085,-0.1087,-0.104,-0.0961,-0.0834,-0.0468,-0.0065,0.011,0.0479,0.0478,0.0585,0.0661,0.0696,0.0791,0.033,0.0441,0.0441,0.0441,0.044,0.044,0,-0.0846,-0.089,-0.095,-0.1017,-0.1069,-0.1079,-0.112,-0.113,-0.1128,-0.1075,-0.1005,-0.0663,-0.0288,0.0087,0.0594,0.0827,0.0908,0.096,0.1034,0.1094,0.069,0.0689,0.0853,0.0853,0.0852,0.0852,0.0852,0.0852,-0.0866,-0.0928,-0.0963,-0.1055,-0.1096,-0.1146,-0.1162,-0.1172,-0.1141,-0.102,-0.0863,-0.0753,-0.0184,0.0647,0.1136,0.1201,0.1415,0.1417,0.1542,0.1259,0.1229,0.1201,0.1218,0.149,0.1491,0.1914,0.1919,0.1922]}],[{"header":{"parameterUnit":"m.s-1","parameterCategory":2,"la1":30.2991,"la2":30.254,"lo1":-89.0895,"lo2":-89.0444,"dy":0.0017,"dx":0.0017,"nx":28,"ny":28,"refTime":"2024-03-18T21:00:00:Z","depth":"2","parameterNumber":2,"parameterNumberName":"U-component_of_CURRENTS"},"data":[0,0,0,0,0,0,0,0,0,0,0,0,0,0,0,0,0,0,0,0,0,0,0,0,0,0,0,0,0,0,0,0,0,0,0,0,0,0,0,0,0,0,0,0,0,0,0,0,0,0,0,0,0,0,0,0,0,0,-0.2074,-0.2075,0,-0.2104,-0.2105,-0.2105,-0.2081,-0.208,-0.208,-0.2079,-0.2072,-0.2073,-0.2074,0,0,0,0,0,0,0,0,0,0,0,0,0,-0.2007,-0.2008,-0.2074,-0.2075,-0.2076,-0.2104,-0.2105,-0.2105,-0.2081,-0.208,-0.2079,-0.2078,-0.2072,-0.2073,-0.2074,0,0,0,0,0,0,0,0,0,0,0,0,0,-0.2035,-0.2009,-0.2074,-0.2069,-0.2069,-0.2104,-0.2105,-0.2105,-0.2081,-0.208,-0.2079,-0.2078,-0.2072,-0.2073,-0.2074,-0.2104,0,0,-0.2076,-0.2077,0,0,0,0,0,0,0,0,-0.2033,-0.2037,-0.2069,-0.2069,-0.2069,-0.209,-0.2079,-0.2103,-0.2082,-0.2074,-0.2079,-0.2077,-0.2077,-0.2078,-0.2083,-0.2103,-0.2103,-0.2076,-0.2077,-0.2077,-0.2078,0,0,0,0,0,0,0,-0.2031,-0.2035,-0.2084,-0.207,-0.207,-0.2069,-0.2071,-0.2083,-0.208,-0.2075,-0.2074,-0.2081,-0.2076,-0.2083,-0.2083,-0.2103,-0.2076,-0.2077,-0.2078,-0.2078,-0.2138,-0.2139,0,0,0,0,0,0,-0.2033,-0.2034,-0.2083,-0.2085,-0.205,-0.2071,-0.2073,-0.2083,-0.2081,-0.208,-0.2082,-0.208,-0.2082,-0.2082,-0.2083,-0.211,-0.2077,-0.2078,-0.2079,-0.2137,-0.2138,-0.2139,0,0,0,0,0,0,-0.2031,-0.2037,-0.2082,-0.2062,-0.2067,-0.2074,-0.2084,-0.2084,-0.2086,-0.2087,-0.2085,-0.2084,-0.2081,-0.2081,-0.2095,-0.2109,-0.2079,-0.2079,-0.2136,-0.2137,-0.2139,-0.2169,0,0,0,0,0,0,-0.2029,-0.2036,-0.204,-0.2062,-0.2069,-0.2102,-0.2086,-0.2085,-0.2093,-0.209,-0.2088,-0.2086,-0.208,-0.2094,-0.2096,-0.211,-0.208,-0.2134,-0.2136,-0.2138,-0.2167,-0.2171,-0.2175,0,0,0,0,0,-0.2027,-0.2037,-0.204,-0.2046,-0.2075,-0.2103,-0.2106,-0.2104,-0.2095,-0.21,-0.21,-0.2086,-0.2107,-0.2096,-0.2098,-0.2112,-0.2133,-0.2136,-0.2138,-0.2165,-0.217,-0.2175,0,0,0,0,0,0,-0.2007,-0.2037,-0.204,-0.2058,-0.2079,-0.2099,-0.2104,-0.2108,-0.2113,-0.2106,-0.2102,-0.2101,-0.2118,-0.2116,-0.2102,-0.2136,-0.2118,-0.2121,-0.2137,-0.2143,-0.2147,-0.2144,-0.2081,0,0,0,0,0,-0.2008,-0.2021,-0.2051,-0.2064,-0.2075,-0.2091,-0.2101,-0.2104,-0.2115,-0.2115,-0.2116,-0.212,-0.2133,-0.2136,-0.2145,-0.2166,-0.2159,-0.2177,-0.2181,-0.2185,-0.2185,-0.2194,-0.2199,-0.2147,-0.2147,-0.2147,0,0,-0.2003,-0.2021,-0.2028,-0.206,-0.2074,-0.2099,-0.2093,-0.211,-0.2129,-0.2116,-0.2133,-0.2136,-0.2143,-0.2164,-0.2172,-0.2161,-0.2197,-0.2188,-0.2191,-0.2189,-0.2197,-0.2202,-0.2206,-0.2149,-0.2148,-0.2148,0,0,-0.2004,-0.2018,-0.2032,-0.2055,-0.2083,-0.21,-0.2107,-0.2131,-0.2136,-0.2162,-0.2157,-0.2172,-0.2187,-0.2198,-0.2205,-0.2243,-0.2221,-0.2241,-0.226,-0.2269,-0.2273,-0.2276,-0.2274,-0.2277,-0.2242,-0.2242,-0.2243,0,-0.1996,-0.202,-0.204,-0.2064,-0.2082,-0.2102,-0.2124,-0.2144,-0.2169,-0.2177,-0.2167,-0.2201,-0.2207,-0.2239,-0.2249,-0.2253,-0.2245,-0.2238,-0.2274,-0.2277,-0.228,-0.2276,-0.2279,-0.2244,-0.2244,-0.2244,-0.2244,0,-0.2012,-0.2033,-0.2044,-0.2083,-0.2106,-0.2127,-0.2163,-0.2182,-0.2191,-0.2208,-0.2235,-0.2247,-0.2263,-0.2273,-0.2272,-0.2301,-0.2284,-0.2278,-0.2257,-0.2287,-0.2281,-0.2284,-0.2247,-0.2246,-0.2246,-0.2245,0,0,-0.1981,-0.2043,-0.2044,-0.2065,-0.2115,-0.2135,-0.2175,-0.2212,-0.2235,-0.2256,-0.228,-0.231,-0.2307,-0.2316,-0.2319,-0.233,-0.2348,-0.231,-0.231,-0.2302,-0.2353,-0.2268,-0.2262,-0.2341,-0.2342,-0.2342,-0.234,0,-0.1983,-0.2024,-0.2058,-0.2097,-0.212,-0.2159,-0.2196,-0.2233,-0.2261,-0.2292,-0.231,-0.2333,-0.2327,-0.2331,-0.2345,-0.2351,-0.2355,-0.2348,-0.2331,-0.233,-0.2245,-0.2262,-0.2053,-0.2026,-0.2343,-0.2343,-0.2343,0,-0.198,-0.2008,-0.2042,-0.2102,-0.2116,-0.2142,-0.2195,-0.2233,-0.2289,-0.2307,-0.2334,-0.235,-0.2379,-0.2363,-0.2384,-0.2375,-0.2364,-0.2364,-0.2363,-0.2273,-0.2248,-0.2049,-0.2019,-0.2347,-0.2347,-0.2346,-0.2346,0,-0.1933,-0.1996,-0.2018,-0.2039,-0.2111,-0.2127,-0.2162,-0.2223,-0.2257,-0.2309,-0.233,-0.2368,-0.2379,-0.2386,-0.2386,-0.2383,-0.2396,-0.2394,-0.2306,-0.23,-0.2113,-0.2089,-0.2398,-0.2398,-0.2398,-0.2398,-0.2398,0,-0.1914,-0.193,-0.1994,-0.2003,-0.2032,-0.2091,-0.2126,-0.2171,-0.2234,-0.2261,-0.2321,-0.2341,-0.2382,-0.2397,-0.2394,-0.2351,-0.24,-0.2307,-0.2293,-0.2118,-0.2095,-0.2366,-0.2362,-0.2398,-0.2398,-0.2398,-0.2398,0,-0.1851,-0.1898,-0.1925,-0.1989,-0.2007,-0.202,-0.2094,-0.2117,-0.2189,-0.2224,-0.2237,-0.232,-0.2332,-0.2364,-0.2377,-0.2342,-0.2326,-0.2294,-0.208,-0.2041,-0.2224,-0.2222,-0.2201,-0.2198,-0.2196,-0.2193,-0.2192,0,-0.1821,-0.1828,-0.189,-0.1896,-0.1917,-0.1953,-0.1973,-0.2067,-0.2092,-0.2196,-0.2196,-0.225,-0.2251,-0.2253,-0.2197,-0.2163,-0.2257,-0.1958,-0.1918,-0.2214,-0.2204,-0.2206,-0.2208,-0.1685,-0.1679,-0.1674,-0.167,0,-0.175,-0.1772,-0.1789,-0.1805,-0.182,-0.1854,-0.1888,-0.1911,-0.2008,-0.2048,-0.209,-0.211,-0.2101,-0.1972,-0.1933,-0.189,-0.195,-0.1859,-0.2218,-0.1769,-0.1727,-0.1717,-0.1736,-0.1628,-0.1632,-0.1635,-0.1638,-0.1639,-0.168,-0.1673,-0.1691,-0.1697,-0.1719,-0.1724,-0.1706,-0.1755,-0.1786,-0.1801,-0.1899,-0.1858,-0.1846,-0.168,-0.1598,-0.1534,-0.1684,-0.1603,-0.1618,-0.1638,-0.158,-0.1536,-0.139,-0.1393,-0.1395,-0.1397,-0.1399,0,-0.158,-0.158,-0.1579,-0.158,-0.1551,-0.1606,-0.1621,-0.1578,-0.1555,-0.1595,-0.1596,-0.1431,-0.1329,-0.1346,-0.1164,-0.1134,-0.1123,-0.1095,-0.1072,-0.1114,-0.1151,-0.107,-0.0743,-0.0742,-0.074,-0.0739,0,0,-0.1525,-0.1483,-0.1485,-0.1405,-0.14,-0.1326,-0.1306,-0.127,-0.1267,-0.1214,-0.1185,-0.1252,-0.1295,-0.102,-0.0947,-0.0821,-0.0966,-0.0773,-0.1293,-0.1306,-0.1342,-0.1428,-0.1347,0,0,0,0,0]},{"header":{"parameterUnit":"m.s-1","parameterCategory":2,"la1":30.2991,"la2":30.254,"lo1":-89.0895,"lo2":-89.0444,"dy":0.0017,"dx":0.0017,"nx":28,"ny":28,"refTime":"2024-03-18T21:00:00:Z","depth":"2","parameterNumber":3,"parameterNumberName":"V-component_of_CURRENTS"},"data":[0,0,0,0,0,0,0,0,0,0,0,0,0,0,0,0,0,0,0,0,0,0,0,0,0,0,0,0,0,0,0,0,0,0,0,0,0,0,0,0,0,0,0,0,0,0,0,0,0,0,0,0,0,0,0,0,0,0,-0.0207,-0.0206,0,-0.0137,-0.0136,-0.0136,-0.0089,-0.0088,-0.0088,-0.0088,0.0002,0.0004,0.0006,0,0,0,0,0,0,0,0,0,0,0,0,0,-0.0263,-0.0262,-0.0207,-0.0206,-0.0205,-0.0137,-0.0136,-0.0135,-0.0089,-0.0088,-0.0088,-0.0088,0.0002,0.0004,0.0007,0,0,0,0,0,0,0,0,0,0,0,0,0,-0.022,-0.0262,-0.0207,-0.0174,-0.0171,-0.0138,-0.0136,-0.0135,-0.0089,-0.0088,-0.0088,-0.0088,0.0001,0.0004,0.0007,0.0018,0,0,0.0017,0.0018,0,0,0,0,0,0,0,0,-0.0222,-0.0218,-0.018,-0.0176,-0.0172,-0.0122,-0.0123,-0.0083,-0.0089,-0.0119,-0.0088,-0.0087,-0.0038,-0.0032,-0.0019,0.0022,0.0026,0.0017,0.0019,0.002,0.0021,0,0,0,0,0,0,0,-0.0225,-0.022,-0.0179,-0.0179,-0.0174,-0.015,-0.0144,-0.0115,-0.0081,-0.0117,-0.0113,-0.0106,-0.0036,-0.0022,-0.0017,0.0027,0.0017,0.002,0.0022,0.0023,0.0086,0.0086,0,0,0,0,0,0,-0.0237,-0.0223,-0.0181,-0.0177,-0.0197,-0.015,-0.0143,-0.0138,-0.0082,-0.0073,-0.0107,-0.0104,-0.0028,-0.002,-0.0013,-0.0002,0.002,0.0023,0.0025,0.0086,0.0086,0.0086,0,0,0,0,0,0,-0.0239,-0.0234,-0.0184,-0.0199,-0.0191,-0.015,-0.0144,-0.0137,-0.0124,-0.0075,-0.0065,-0.0102,-0.0027,-0.0018,0.0009,0.0002,0.0025,0.0028,0.0086,0.0086,0.0086,0.0024,0,0,0,0,0,0,-0.0241,-0.0235,-0.0239,-0.02,-0.019,-0.0171,-0.0145,-0.0136,-0.012,-0.0116,-0.0067,-0.0058,-0.0026,0.0004,0.0012,0.0007,0.003,0.0087,0.0086,0.0086,0.0026,0.0021,0.0017,0,0,0,0,0,-0.0243,-0.025,-0.0239,-0.0234,-0.0195,-0.0171,-0.0165,-0.0133,-0.0121,-0.0119,-0.0085,-0.006,0.0007,0.0007,0.0016,0.0011,0.0087,0.0086,0.0086,0.0028,0.0022,0.0018,0,0,0,0,0,0,-0.0275,-0.0245,-0.0232,-0.0229,-0.0206,-0.0164,-0.016,-0.0139,-0.0111,-0.0108,-0.0061,-0.005,-0.003,-0.0001,-0.0003,0.0029,0.0051,0.0052,0.0004,-0.0001,-0.0006,-0.0016,0.0033,0,0,0,0,0,-0.0285,-0.0283,-0.0248,-0.0247,-0.0238,-0.0201,-0.0188,-0.0168,-0.0137,-0.0124,-0.0089,-0.0054,-0.0025,-0.0007,0.0023,0.004,0.0072,0.0044,0.0039,0.0035,0.0033,0.007,0.0069,0.0084,0.0084,0.0084,0,0,-0.0296,-0.028,-0.0278,-0.0254,-0.0234,-0.0228,-0.0192,-0.0179,-0.0172,-0.0119,-0.0103,-0.0069,-0.0024,-0.0005,0.0007,0.0019,0.0048,0.0034,0.003,0.0031,0.0069,0.0068,0.0067,0.0083,0.0084,0.0084,0,0,-0.0322,-0.0306,-0.0314,-0.0299,-0.0275,-0.0251,-0.0251,-0.0214,-0.0196,-0.0176,-0.0137,-0.0109,-0.0064,-0.0033,-0.0012,-0.0022,0.0022,-0.0013,-0.0042,-0.0006,-0.0007,-0.0008,0.003,0.0033,-0.0014,-0.0014,-0.0014,0,-0.0338,-0.0343,-0.0313,-0.0318,-0.0312,-0.0267,-0.0275,-0.025,-0.0209,-0.0197,-0.0181,-0.0114,-0.0078,-0.005,-0.0053,-0.0033,-0.0004,-0.0027,-0.0013,-0.0013,-0.0012,0.0027,0.0031,-0.0017,-0.0017,-0.0017,-0.0016,0,-0.0369,-0.0374,-0.0378,-0.037,-0.0359,-0.0359,-0.0323,-0.0309,-0.0283,-0.0254,-0.0222,-0.017,-0.013,-0.0114,-0.0085,-0.0064,-0.0042,-0.0025,-0.0002,-0.0017,0.0025,0.003,-0.0022,-0.0021,-0.002,-0.0019,0,0,-0.0405,-0.0402,-0.0405,-0.0413,-0.0389,-0.0384,-0.0375,-0.0352,-0.0347,-0.0301,-0.0288,-0.0234,-0.02,-0.0174,-0.0131,-0.0097,-0.0068,-0.0064,-0.0061,-0.0032,0.0014,0.0042,0.0052,-0.0049,-0.0048,-0.0048,0.0041,0,-0.044,-0.047,-0.0453,-0.0475,-0.0487,-0.0449,-0.0448,-0.0421,-0.0384,-0.0359,-0.0297,-0.0267,-0.0224,-0.0206,-0.0166,-0.0091,-0.0055,-0.0093,0.0029,0.0033,0.0056,0.0059,0.0065,0.0145,0.0047,0.0048,0.0049,0,-0.0478,-0.0494,-0.0527,-0.0535,-0.0537,-0.0541,-0.0529,-0.0517,-0.0466,-0.044,-0.0391,-0.0336,-0.0276,-0.024,-0.0122,-0.0148,-0.0075,-0.0016,-0.0011,0.0042,0.0072,0.0146,0.016,0.0059,0.0058,0.0057,0.0057,0,-0.0525,-0.0544,-0.0575,-0.0577,-0.0578,-0.0586,-0.058,-0.0545,-0.0539,-0.0483,-0.047,-0.0386,-0.0344,-0.0245,-0.0119,-0.0119,0.0013,0.0029,0.0125,0.0128,0.0171,0.0177,0.0108,0.0108,0.0108,0.0108,0.0107,0,-0.057,-0.0593,-0.0602,-0.062,-0.066,-0.0637,-0.0659,-0.0638,-0.0608,-0.0602,-0.0514,-0.0488,-0.0344,-0.0247,-0.0134,0.0016,0.0004,0.0124,0.0153,0.015,0.0152,0.0107,0.0105,0.0111,0.011,0.011,0.0109,0,-0.0615,-0.0619,-0.0658,-0.0676,-0.0684,-0.0711,-0.072,-0.0729,-0.069,-0.0677,-0.0663,-0.056,-0.043,-0.0277,-0.0109,-0.0004,0.0135,0.0188,0.0175,0.0202,0.023,0.0225,0.0307,0.0309,0.031,0.0312,0.0313,0,-0.0641,-0.0666,-0.0707,-0.0735,-0.0745,-0.0776,-0.0799,-0.0778,-0.078,-0.072,-0.0719,-0.0595,-0.05,-0.0238,-0.0029,0.0184,0.0172,0.0304,0.0305,0.023,0.0251,0.0243,0.0236,0.0341,0.0342,0.0343,0.0344,0,-0.0689,-0.0702,-0.0735,-0.0797,-0.0833,-0.0871,-0.0894,-0.0908,-0.0872,-0.0848,-0.0788,-0.0705,-0.0445,-0.0203,0.0075,0.0202,0.0272,0.0331,0.0265,0.0283,0.0268,0.0286,0.0277,0.0353,0.0352,0.0351,0.0351,0.0351,-0.0719,-0.0758,-0.0801,-0.0857,-0.0901,-0.0946,-0.0971,-0.0971,-0.0969,-0.0893,-0.0828,-0.0661,-0.044,-0.0025,0.0167,0.0366,0.0356,0.0419,0.0414,0.0408,0.0389,0.0377,0.0479,0.0479,0.0479,0.0479,0.0479,0,-0.0748,-0.0796,-0.0855,-0.092,-0.0965,-0.0981,-0.1018,-0.1002,-0.0984,-0.0885,-0.0789,-0.0518,-0.0247,-0.0013,0.0313,0.0483,0.0475,0.051,0.0466,0.0458,0.045,0.0431,0.0534,0.0534,0.0534,0.0534,0,0,-0.0767,-0.0827,-0.086,-0.0947,-0.0993,-0.1029,-0.1043,-0.1005,-0.0927,-0.0807,-0.0671,-0.0497,-0.0226,0.0007,0.0225,0.0392,0.0379,0.0412,0.0357,0.0273,0.0263,0.0394,0.0355,0,0,0,0,0]}],[{"header":{"parameterUnit":"m.s-1","parameterCategory":2,"la1":30.2991,"la2":30.254,"lo1":-89.0895,"lo2":-89.0444,"dy":0.0017,"dx":0.0017,"nx":28,"ny":28,"refTime":"2024-03-18T21:00:00:Z","depth":"4","parameterNumber":2,"parameterNumberName":"U-component_of_CURRENTS"},"data":[0,0,0,0,0,0,0,0,0,0,0,0,0,0,0,0,0,0,0,0,0,0,0,0,0,0,0,0,0,0,0,0,0,0,0,0,0,0,0,0,0,0,0,0,0,0,0,0,0,0,0,0,0,0,0,0,0,0,-0.1426,-0.1427,0,-0.1482,-0.1482,-0.1483,-0.1515,-0.1515,-0.1515,-0.1515,-0.1577,-0.1578,-0.158,0,0,0,0,0,0,0,0,0,0,0,0,0,-0.1353,-0.1354,-0.1426,-0.1427,-0.1427,-0.1482,-0.1482,-0.1483,-0.1515,-0.1515,-0.1515,-0.1515,-0.1576,-0.1578,-0.158,0,0,0,0,0,0,0,0,0,0,0,0,0,-0.1393,-0.1354,-0.1426,-0.1451,-0.1454,-0.1482,-0.1482,-0.1483,-0.1515,-0.1515,-0.1515,-0.1516,-0.1576,-0.1578,-0.158,-0.1587,0,0,-0.1587,-0.1588,0,0,0,0,0,0,0,0,-0.139,-0.1395,-0.1446,-0.1449,-0.1452,-0.1493,-0.1479,-0.1519,-0.1514,-0.149,-0.1515,-0.1516,-0.155,-0.1554,-0.1562,-0.1589,-0.1592,-0.1587,-0.1588,-0.1589,-0.159,0,0,0,0,0,0,0,-0.1388,-0.1393,-0.1447,-0.1447,-0.1451,-0.1461,-0.1467,-0.1487,-0.1516,-0.1492,-0.1495,-0.1503,-0.1551,-0.156,-0.1564,-0.1593,-0.1587,-0.1589,-0.159,-0.1591,-0.1694,-0.1696,0,0,0,0,0,0,-0.1383,-0.1391,-0.1445,-0.1448,-0.1423,-0.1463,-0.1469,-0.1478,-0.1516,-0.1523,-0.1503,-0.1504,-0.1556,-0.1561,-0.1566,-0.1637,-0.1589,-0.1591,-0.1592,-0.1693,-0.1695,-0.1696,0,0,0,0,0,0,-0.1381,-0.1387,-0.1443,-0.1422,-0.143,-0.1464,-0.1474,-0.1479,-0.1512,-0.1524,-0.1531,-0.1532,-0.1557,-0.1563,-0.1607,-0.1637,-0.1592,-0.1594,-0.1691,-0.1693,-0.1695,-0.1739,0,0,0,0,0,0,-0.1379,-0.1386,-0.1402,-0.1421,-0.1431,-0.1475,-0.1474,-0.148,-0.1515,-0.1519,-0.1551,-0.1556,-0.1557,-0.1604,-0.1609,-0.1639,-0.1596,-0.1689,-0.1692,-0.1695,-0.1735,-0.1742,-0.1748,0,0,0,0,0,-0.1376,-0.1392,-0.1403,-0.141,-0.1448,-0.1476,-0.1482,-0.1506,-0.1517,-0.1535,-0.1561,-0.1556,-0.1625,-0.1607,-0.1613,-0.1644,-0.1688,-0.1691,-0.1695,-0.1733,-0.1741,-0.1748,0,0,0,0,0,0,-0.1371,-0.1397,-0.141,-0.1435,-0.1462,-0.1482,-0.1505,-0.1521,-0.1555,-0.1565,-0.1575,-0.1582,-0.1631,-0.1634,-0.1613,-0.1682,-0.1656,-0.166,-0.1683,-0.1691,-0.1697,-0.169,-0.1597,0,0,0,0,0,-0.1377,-0.1397,-0.1423,-0.1446,-0.1461,-0.1488,-0.1507,-0.1525,-0.1552,-0.1569,-0.1593,-0.1619,-0.1645,-0.1665,-0.1686,-0.1725,-0.1714,-0.1749,-0.1756,-0.1761,-0.176,-0.177,-0.1776,-0.1707,-0.1707,-0.1707,0,0,-0.1382,-0.14,-0.1413,-0.1447,-0.147,-0.1499,-0.1501,-0.1537,-0.1569,-0.157,-0.1627,-0.1644,-0.1661,-0.1704,-0.1726,-0.1713,-0.1775,-0.1765,-0.1769,-0.1766,-0.1774,-0.178,-0.1786,-0.1709,-0.1709,-0.1709,0,0,-0.1394,-0.142,-0.1438,-0.1465,-0.1504,-0.1522,-0.1538,-0.1576,-0.1602,-0.1652,-0.1661,-0.1699,-0.1742,-0.1759,-0.1771,-0.1826,-0.1807,-0.1837,-0.1865,-0.1875,-0.188,-0.1885,-0.1877,-0.1881,-0.1841,-0.1841,-0.1841,0,-0.1403,-0.1428,-0.145,-0.1477,-0.1503,-0.1536,-0.1565,-0.1598,-0.1648,-0.1671,-0.1678,-0.1748,-0.1767,-0.1811,-0.1832,-0.184,-0.1833,-0.1834,-0.1882,-0.1886,-0.189,-0.1881,-0.1884,-0.1843,-0.1843,-0.1843,-0.1843,0,-0.1421,-0.1455,-0.147,-0.1514,-0.1546,-0.1579,-0.1621,-0.1662,-0.1698,-0.1724,-0.1784,-0.1811,-0.1847,-0.1865,-0.1868,-0.1911,-0.1893,-0.1886,-0.1858,-0.1899,-0.1888,-0.189,-0.1847,-0.1846,-0.1845,-0.1845,0,0,-0.1401,-0.147,-0.1478,-0.1507,-0.1569,-0.1594,-0.1653,-0.1704,-0.1743,-0.1795,-0.1838,-0.1893,-0.1904,-0.1919,-0.193,-0.1946,-0.1973,-0.1932,-0.1931,-0.1916,-0.1982,-0.1833,-0.1821,-0.1973,-0.1973,-0.1974,-0.1962,0,-0.1411,-0.146,-0.1497,-0.1555,-0.1584,-0.1638,-0.1687,-0.1742,-0.1789,-0.1841,-0.1875,-0.1921,-0.1925,-0.1947,-0.1966,-0.1974,-0.1982,-0.1976,-0.1952,-0.1951,-0.1807,-0.182,-0.1977,-0.1964,-0.1964,-0.1965,-0.1965,0,-0.1408,-0.1444,-0.1498,-0.1574,-0.1593,-0.1636,-0.1714,-0.1765,-0.1838,-0.1873,-0.192,-0.1948,-0.1992,-0.1984,-0.2012,-0.2007,-0.1999,-0.1997,-0.1996,-0.1841,-0.1806,-0.1916,-0.1969,-0.1969,-0.1969,-0.1968,-0.1968,0,-0.1363,-0.1443,-0.1486,-0.1514,-0.1604,-0.1643,-0.1693,-0.1772,-0.1816,-0.1892,-0.1921,-0.1976,-0.2,-0.2012,-0.2015,-0.2019,-0.2024,-0.2026,-0.1881,-0.1871,-0.1991,-0.1986,-0.2033,-0.2033,-0.2033,-0.2033,-0.2033,0,-0.134,-0.1379,-0.1473,-0.1495,-0.1552,-0.1623,-0.1687,-0.1744,-0.1821,-0.1852,-0.193,-0.1945,-0.2009,-0.202,-0.2019,-0.1944,-0.2025,-0.1877,-0.1854,-0.2009,-0.2007,-0.1992,-0.1987,-0.2033,-0.2033,-0.2033,-0.2033,0,-0.1277,-0.1343,-0.1399,-0.1498,-0.1532,-0.1571,-0.1674,-0.1707,-0.1793,-0.1832,-0.1854,-0.1931,-0.1931,-0.1968,-0.1981,-0.1922,-0.1887,-0.1839,-0.1992,-0.198,-0.1728,-0.1727,-0.1675,-0.167,-0.1665,-0.1661,-0.1658,0,-0.1246,-0.1269,-0.1382,-0.1411,-0.1459,-0.153,-0.1567,-0.1674,-0.1698,-0.1795,-0.1786,-0.1834,-0.1862,-0.176,-0.1816,-0.1785,-0.1766,-0.1736,-0.174,-0.1707,-0.1691,-0.1697,-0.1701,-0.1651,-0.1649,-0.1648,-0.1647,0,-0.118,-0.1233,-0.1277,-0.1336,-0.1385,-0.1436,-0.1493,-0.1502,-0.1598,-0.1695,-0.1666,-0.1662,-0.1651,-0.1654,-0.1634,-0.1619,-0.1753,-0.1688,-0.1698,-0.1701,-0.1677,-0.1667,-0.1676,-0.1631,-0.1633,-0.1635,-0.1636,0,-0.113,-0.1143,-0.1203,-0.1242,-0.1302,-0.131,-0.1362,-0.1373,-0.1416,-0.1518,-0.1499,-0.155,-0.1621,-0.1565,-0.1551,-0.1516,-0.1499,-0.1454,-0.1476,-0.1494,-0.144,-0.1383,-0.1216,0,0,0,0,0,-0.1068,-0.1069,-0.1099,-0.1135,-0.1186,-0.1217,-0.1293,-0.1343,-0.1435,-0.1367,-0.1429,-0.1409,-0.138,-0.1417,-0.1343,-0.1474,-0.151,-0.1381,-0.1473,-0.1542,-0.1561,-0.1513,0,0,0,0,0,0,-0.1027,-0.1053,-0.1062,-0.1031,-0.103,-0.107,-0.1113,-0.1177,-0.1149,-0.1247,-0.124,-0.1311,-0.1311,-0.1396,-0.131,-0.1318,-0.1343,-0.1421,-0.1416,-0.1532,-0.1549,-0.1563,-0.1521,0,0,0,0,0]},{"header":{"parameterUnit":"m.s-1","parameterCategory":2,"la1":30.2991,"la2":30.254,"lo1":-89.0895,"lo2":-89.0444,"dy":0.0017,"dx":0.0017,"nx":28,"ny":28,"refTime":"2024-03-18T21:00:00:Z","depth":"4","parameterNumber":3,"parameterNumberName":"V-component_of_CURRENTS"},"data":[0,0,0,0,0,0,0,0,0,0,0,0,0,0,0,0,0,0,0,0,0,0,0,0,0,0,0,0,0,0,0,0,0,0,0,0,0,0,0,0,0,0,0,0,0,0,0,0,0,0,0,0,0,0,0,0,0,0,0.0014,0.0015,0,0.0058,0.0059,0.0059,0.0095,0.0095,0.0096,0.0096,0.0162,0.0163,0.0165,0,0,0,0,0,0,0,0,0,0,0,0,0,-0.0012,-0.0012,0.0014,0.0015,0.0015,0.0058,0.0059,0.0059,0.0095,0.0095,0.0096,0.0096,0.0162,0.0163,0.0165,0,0,0,0,0,0,0,0,0,0,0,0,0,0.0013,-0.0012,0.0014,0.0038,0.004,0.0058,0.0059,0.0059,0.0095,0.0095,0.0096,0.0096,0.0161,0.0163,0.0165,0.0169,0,0,0.0172,0.0173,0,0,0,0,0,0,0,0,0.0011,0.0014,0.0034,0.0036,0.0039,0.0071,0.0073,0.0097,0.0095,0.0075,0.0096,0.0097,0.0133,0.0137,0.0145,0.0172,0.0175,0.0172,0.0173,0.0174,0.0175,0,0,0,0,0,0,0,0.0009,0.0012,0.0032,0.0034,0.0038,0.0055,0.0059,0.0078,0.0101,0.0077,0.0079,0.0083,0.0135,0.0143,0.0147,0.0176,0.0172,0.0174,0.0175,0.0176,0.0215,0.0215,0,0,0,0,0,0,0.0001,0.001,0.0031,0.0033,0.0025,0.0055,0.006,0.0061,0.0101,0.0107,0.0083,0.0085,0.0139,0.0144,0.0149,0.0154,0.0174,0.0176,0.0178,0.0215,0.0215,0.0215,0,0,0,0,0,0,-0.0,0.0002,0.0029,0.0023,0.0027,0.0055,0.0056,0.0061,0.007,0.0105,0.0112,0.0085,0.014,0.0146,0.0164,0.0157,0.0177,0.0179,0.0216,0.0215,0.0215,0.0165,0,0,0,0,0,0,-0.0001,0.0001,-0.0003,0.0022,0.0027,0.0034,0.0056,0.0062,0.0071,0.0074,0.011,0.0116,0.014,0.016,0.0166,0.016,0.0181,0.0216,0.0215,0.0215,0.0167,0.0163,0.0159,0,0,0,0,0,-0.0002,-0.0011,-0.0003,-0.0001,0.0021,0.0033,0.0038,0.006,0.0071,0.007,0.0095,0.0115,0.0161,0.0162,0.0168,0.0163,0.0216,0.0216,0.0215,0.0168,0.0163,0.0159,0,0,0,0,0,0,-0.0024,-0.0007,0.0001,-0.0001,0.0012,0.0039,0.0039,0.0055,0.0074,0.0076,0.0112,0.012,0.0132,0.0154,0.0154,0.0173,0.0192,0.0193,0.0154,0.015,0.0146,0.0138,0.0183,0,0,0,0,0,-0.0032,-0.0034,-0.0014,-0.0017,-0.0012,0.0012,0.0019,0.0033,0.0054,0.0063,0.0088,0.0114,0.0134,0.0147,0.0167,0.0177,0.0204,0.0179,0.0175,0.0172,0.017,0.0204,0.0203,0.0213,0.0213,0.0213,0,0,-0.0041,-0.0033,-0.0033,-0.0022,-0.001,-0.001,0.0018,0.0023,0.0025,0.0067,0.0075,0.01,0.0134,0.0145,0.0153,0.0163,0.0183,0.0171,0.0168,0.0168,0.0203,0.0202,0.0201,0.0212,0.0212,0.0212,0,0,-0.0062,-0.0054,-0.0063,-0.0057,-0.0045,-0.0029,-0.003,-0.0007,0.0004,0.0014,0.0045,0.0066,0.0095,0.0119,0.0135,0.0123,0.016,0.013,0.0106,0.0138,0.0138,0.0138,0.0167,0.0169,0.0129,0.0129,0.0129,0,-0.0074,-0.0082,-0.0064,-0.0073,-0.0072,-0.0042,-0.0052,-0.0037,-0.0011,-0.0003,0.0009,0.0056,0.0083,0.0104,0.01,0.0115,0.0139,0.0119,0.0133,0.0133,0.0134,0.0164,0.0168,0.0127,0.0127,0.0127,0.0127,0,-0.0101,-0.0109,-0.0115,-0.0116,-0.0113,-0.0117,-0.0096,-0.0089,-0.0072,-0.0052,-0.0031,0.0008,0.0037,0.0049,0.0071,0.0089,0.0106,0.0122,0.0143,0.013,0.0163,0.0167,0.0123,0.0124,0.0125,0.0125,0,0,-0.0125,-0.0133,-0.0137,-0.0147,-0.0138,-0.0139,-0.0138,-0.0126,-0.0125,-0.0094,-0.0088,-0.0047,-0.0022,-0.0001,0.0033,0.0063,0.0088,0.0091,0.0094,0.0116,0.0159,0.015,0.0155,0.0107,0.0108,0.0108,0.0178,0,-0.0152,-0.0183,-0.0176,-0.0201,-0.0215,-0.0193,-0.0198,-0.0183,-0.016,-0.0145,-0.0097,-0.0078,-0.0041,-0.0029,0.0006,0.0068,0.0099,0.0068,0.0171,0.0174,0.0165,0.0159,0.011,0.0182,0.0183,0.0184,0.0184,0,-0.0181,-0.0199,-0.0232,-0.025,-0.0255,-0.0266,-0.0267,-0.0263,-0.023,-0.0214,-0.0177,-0.0136,-0.0087,-0.0057,0.0044,0.0022,0.0083,0.0133,0.0137,0.015,0.0174,0.0199,0.0194,0.0193,0.0192,0.0192,0.0191,0,-0.021,-0.0237,-0.0268,-0.0275,-0.0288,-0.0302,-0.0306,-0.0288,-0.0288,-0.0252,-0.0245,-0.0178,-0.0147,-0.006,0.0041,0.0045,0.0152,0.0172,0.0223,0.0223,0.0233,0.0233,0.024,0.024,0.024,0.024,0.0239,0,-0.0238,-0.0263,-0.0289,-0.0307,-0.0349,-0.0342,-0.0372,-0.0362,-0.0348,-0.0349,-0.0283,-0.0265,-0.0146,-0.0069,0.0027,0.0135,0.0143,0.0217,0.0239,0.021,0.0206,0.0237,0.0236,0.0242,0.0242,0.0241,0.0241,0,-0.0261,-0.0276,-0.0317,-0.035,-0.0365,-0.0394,-0.0423,-0.0437,-0.0418,-0.0414,-0.0405,-0.0327,-0.0225,-0.0104,0.0037,0.011,0.0219,0.0255,0.0208,0.0227,0.0275,0.027,0.0323,0.0323,0.0323,0.0323,0.0323,0,-0.0273,-0.0297,-0.0354,-0.0385,-0.0404,-0.0446,-0.0475,-0.0475,-0.0482,-0.0449,-0.0446,-0.0357,-0.029,-0.0098,0.0026,0.0204,0.023,0.0282,0.0285,0.0266,0.0283,0.0278,0.0273,0.0324,0.0324,0.0324,0.0324,0,-0.0295,-0.0319,-0.0354,-0.0421,-0.0465,-0.051,-0.0544,-0.0555,-0.0543,-0.0532,-0.0469,-0.0366,-0.0253,-0.01,0.003,0.0159,0.0246,0.0285,0.0285,0.029,0.0268,0.0284,0.0279,0.0325,0.0325,0.0324,0.0324,0,-0.0309,-0.0344,-0.0392,-0.0449,-0.0507,-0.0549,-0.0568,-0.0568,-0.057,-0.0523,-0.0506,-0.0377,-0.0304,-0.0124,-0.0002,0.012,0.0158,0.0199,0.0205,0.0206,0.015,0.0104,0.0127,0,0,0,0,0,-0.0318,-0.0357,-0.0414,-0.0477,-0.0533,-0.0561,-0.0601,-0.0607,-0.0599,-0.0557,-0.0527,-0.0416,-0.0229,-0.015,-0.0027,0.0003,0.0173,0.0149,0.0222,0.0328,0.0328,0.0281,0,0,0,0,0,0,-0.0326,-0.038,-0.0413,-0.0483,-0.0523,-0.0581,-0.0603,-0.06,-0.0568,-0.0543,-0.0442,-0.0389,-0.0206,-0.0294,-0.0024,0.0011,0.0073,0.0237,0.0239,0.0329,0.0328,0.0328,0.0279,0,0,0,0,0]}]]